Regional Weather Roundup
Issued by NWS

Home | Current Version | Previous Version | Graphics & Text | Print | Product List | Glossary On
Versions: 1 2 3 4 5 6 7 8 9 10 11 12 13 14 15 16 17 18 19 20 21 22 23 24 25 26 27 28 29
000
ASUS45 KBOU 261602
RWRCO

WEATHER ROUNDUP FOR COLORADO
NATIONAL WEATHER SERVICE PUEBLO CO
1000 AM MDT WED APR 26 2017

NOTE: "FAIR" INDICATES FEW OR NO CLOUDS BELOW 12000 FEET WITH NO
SIGNIFICANT WEATHER AND/OR OBSTRUCTIONS TO VISIBILITY.

COZ001>005-013-030-031-261700-
...NORTHWEST COLORADO...

CITY           SKY/WX    TMP DP  RH WIND       PRES   REMARKS
CRAIG          PTSUNNY   42  33  70 CALM      29.89F
HAYDEN         MOSUNNY   36  28  75 NE3       29.90F
MEEKER         CLOUDY    41  33  73 VRB3      29.91F
MOUNT WERNER   NOT AVBL
STEAMBOAT SPGS CLOUDY    32  30  92 CALM      29.91R
WALDEN           N/A     36  21  55 W9        29.88F
$$

COZ006>008-011-261700-
...WEST CENTRAL VALLEYS...

CITY           SKY/WX    TMP DP  RH WIND       PRES   REMARKS
GRAND JUNCTION MOSUNNY   48  36  63 CALM      29.91F
MONTROSE       CLOUDY    46  31  55 VRB7      29.95F
EAGLE          MOSUNNY   39  27  60 CALM      29.92F
RIFLE          PTSUNNY   44  33  65 E3        29.92F
DELTA          NOT AVBL
NUCLA          FAIR      45  32  61 S3        29.98F
$$

COZ017>023-064>068-261700-
...SOUTHWEST COLORADO...

CITY           SKY/WX    TMP DP  RH WIND       PRES   REMARKS
DURANGO        SUNNY     43  23  45 CALM      29.92S
CORTEZ         SUNNY     50  29  44 W9        29.93F
PAGOSA SPRINGS FAIR      39  25  57 CALM      29.93S
TELLURIDE      SUNNY     33  26  73 CALM      29.97F
WOLF CREEK PAS NOT AVBL
$$

COZ009-010-012-014-032>034-037-058>063-261700-
...CENTRAL COLORADO...

CITY           SKY/WX    TMP DP  RH WIND       PRES   REMARKS
ASPEN          CLOUDY    35  23  61 CALM      29.91F
BUENA VISTA    FAIR      43  12  28 SW9G17    29.86F
COPPER MTN     FLURRIES  23  18  80 MISG      29.91F
BERTHOUD PASS  CLOUDY    14   3  62 NW30G44   29.85F WCI  -7
COTTONWOOD PAS PTSUNNY   36  12  38 W5G22     29.89F
GUNNISON       MOSUNNY   39  19  44 VRB5      29.91F
KREMMLING      CLOUDY    41  28  60 W8        29.89F
LEADVILLE      CLOUDY    26  15  63 W7        29.89F WCI  18
MONARCH PASS   CLOUDY    19  18  93 W10       30.02F WCI   8
SALIDA         FAIR      46  17  31 CALM      29.93F
NIWOT RIDGE    NOT AVBL
SUNLIGHT       LGT SNOW N/A N/A N/A MISG      29.97S
WILKERSON PASS SUNNY     28  12  50 N12G24    29.92R WCI  18
$$

COZ069>075-261700-
...SAN LUIS VALLEY/SANGRE DE CRISTO MOUNTAINS...

CITY           SKY/WX    TMP DP  RH WIND       PRES   REMARKS
ALAMOSA        MOSUNNY   41  22  46 NW9       29.90R
LA VETA PASS   SUNNY     32  27  80 S12G22    30.02R WCI  23
SAGUACHE       MOSUNNY   43  18  36 NW18G28   29.89F
$$

COZ035-036-038>040-261700-
...NORTHERN COLORADO FRONT RANGE...

CITY           SKY/WX    TMP DP  RH WIND       PRES   REMARKS
DENVER INTL AP MOSUNNY   43  28  55 SE3       29.81F
DMNS CITY PARK NOT AVBL
AURORA         MOSUNNY   42  30  61 SW5       29.82F
FRONT RANGE AP MOSUNNY   45  37  76 SW3       29.83F
ERIE MUNI ARPT FAIR      46  29  50 SE6       29.80F
BOULDER MUN AP FAIR      45  30  57 S5        29.80F
CENTENNIAL     MOSUNNY   42  29  59 VRB3      29.82F
BROOMFIELD     MOSUNNY   45  28  53 E6        29.81
LOVELAND       SUNNY     43  29  57 SE8       29.82S
LONGMONT       FAIR      48  32  52 E7        29.82F HAZE
$$

COZ041-046-047-076>085-087-088-261700-
...PIKES PEAK/PALMER DIVIDE AND SOUTHERN FOOTHILLS...

CITY           SKY/WX    TMP DP  RH WIND       PRES   REMARKS
COLO. SPRINGS  MOSUNNY   43  30  60 VRB3      29.86S
A. F. ACADEMY  MOSUNNY   41  29  63 CALM      29.84S
ELLICOTT       FAIR       1  32 100 N14       29.83  WCI -17
FALCON         FAIR      41  24  51 NW7       29.86R
SCHRIEVER AFB  FAIR      41  26  56 NW8       29.85S
FORT CARSON    MOSUNNY   40  30  67 SE3       29.86R
LIMON          SUNNY     41  30  65 N20G26    29.82F
MONUMENT HILL  SUNNY     34  28  80 CALM      29.85S
TRINIDAD       PTSUNNY   39  32  76 W7        29.87R
$$

COZ042>045-048>051-090-091-261700-
...NORTHEAST COLORADO...

CITY           SKY/WX    TMP DP  RH WIND       PRES   REMARKS
GREELEY ARPT   SUNNY     43  29  57 VRB3      29.83F
AKRON          SUNNY     42  28  57 N17G24    29.80F
BURLINGTON     NOT AVBL
WRAY           NOT AVBL
STERLING       FAIR      45  32  61 N10       29.81F
HOLYOKE        FAIR      43  32  65 NW16G22   29.81F
FORT MORGAN    FAIR      47  28  47 NW5       29.82F
$$

COZ086-089-092>099-261700-
...SOUTHEAST COLORADO...

CITY           SKY/WX    TMP DP  RH WIND       PRES   REMARKS
PUEBLO         SUNNY     44  34  67 CALM      29.86S
LA JUNTA       MOSUNNY   49  33  54 NW17G23   29.85F
LAMAR          MOSUNNY   46  32  58 NW20G25   29.82F
SPRINGFIELD      N/A     43  32  65 N22G29    29.82F
$$





USA.gov is the U.S. government's official web portal to all federal, state and local government web resources and services.